San Antonio, TX

8:33 PM CDT on June 24, 2017 (GMT -0500)
San Antonio International

Weather History for KSAT - May, 2013

Change the Weather History Date:

Sunday, May 12, 2013

  Actual Average Record
Temperature  
Mean Temperature 71 °F 76 °F  
Max Temperature 81 °F 86 °F 101 °F (1967)
Min Temperature 60 °F 66 °F 46 °F (1952)
Degree Days  
Heating Degree Days 0 0  
Month to date heating degree days 15 0  
Since 1 July heating degree days 1206 1494  
Cooling Degree Days 6 11  
Month to date cooling degree days 53 117  
Year to date cooling degree days 314 376  
Growing Degree Days 21 (Base 50)    
Moisture  
Dew Point 49 °F    
Average Humidity 47    
Maximum Humidity 64    
Minimum Humidity 30    
Precipitation  
Precipitation 0.00 in 0.12 in 2.10 in (1893)
Month to date precipitation 0.92 1.39  
Year to date precipitation 7.57 9.35  
Snow  
Snow 0.00 in - - ()
Month to date snowfall 0.0  
Since 1 July snowfall T  
Snow Depth 0.00 in    
Sea Level Pressure  
Sea Level Pressure 30.13 in    
Wind  
Wind Speed 7 mph (NE)    
Max Wind Speed 20 mph    
Max Gust Speed 23 mph    
Visibility 10 miles    
Events      
T = Trace of Precipitation, MM = Missing Value Source: NWS Daily Summary

Daily Weather History Graph

Daily Weather History Graph

Search for Another Location

Airport or City:

Trip Planner

Search our weather history database for the weather conditions in past years. The results will help you decide how hot, cold, wet, or windy it might be!

Date:

Astronomy

May. 12, 2013 Rise Set
Actual Time 6:43 AM CDT 8:17 PM CDT
Civil Twilight 6:17 AM CDT 8:43 PM CDT
Nautical Twilight 5:46 AM CDT 9:14 PM CDT
Astronomical Twilight 5:13 AM CDT 9:47 PM CDT
Moon 8:42 AM CDT (5/12) 10:43 PM CDT (5/12)
Length of Visible Light 14h 26m
Length of Day
13h 34m
Waxing Crescent, 7% of the Moon is Illuminated
May 12
Waxing Crescent
May 17
First Quarter
May 24
Full
May 31
Last Quarter
Jun 8
New

Hourly Weather History & Observations

Time (CDT) Temp. Dew Point Humidity Pressure Visibility Wind Dir Wind Speed Gust Speed Precip Events Conditions
12:51 AM 70.0 °F 51.1 °F 51% 30.11 in 10.0 mi NNE 4.6 mph - N/A   Mostly Cloudy
1:51 AM 69.1 °F 48.9 °F 49% 30.08 in 10.0 mi NNE 8.1 mph - N/A   Mostly Cloudy
2:51 AM 66.0 °F 48.0 °F 52% 30.09 in 10.0 mi NE 4.6 mph - N/A   Clear
3:51 AM 64.0 °F 48.0 °F 56% 30.09 in 10.0 mi North 6.9 mph - N/A   Partly Cloudy
4:51 AM 64.0 °F 48.9 °F 58% 30.09 in 10.0 mi North 9.2 mph - N/A   Partly Cloudy
5:51 AM 63.0 °F 48.9 °F 60% 30.10 in 10.0 mi North 3.5 mph - N/A   Mostly Cloudy
6:51 AM 61.0 °F 48.0 °F 62% 30.12 in 10.0 mi North 5.8 mph - N/A   Scattered Clouds
7:51 AM 66.0 °F 50.0 °F 56% 30.16 in 10.0 mi North 6.9 mph - N/A   Mostly Cloudy
8:51 AM 66.9 °F 50.0 °F 54% 30.20 in 10.0 mi NE 3.5 mph - N/A   Mostly Cloudy
9:51 AM 69.1 °F 52.0 °F 54% 30.21 in 10.0 mi North 4.6 mph - N/A   Overcast
10:51 AM 70.0 °F 51.1 °F 51% 30.18 in 10.0 mi NNE 9.2 mph - N/A   Mostly Cloudy
11:51 AM 75.9 °F 52.0 °F 43% 30.16 in 10.0 mi NE 10.4 mph - N/A   Mostly Cloudy
12:51 PM 78.1 °F 50.0 °F 37% 30.17 in 10.0 mi East 15.0 mph 20.7 mph N/A   Mostly Cloudy
1:51 PM 78.1 °F 48.0 °F 35% 30.16 in 10.0 mi ENE 13.8 mph - N/A   Mostly Cloudy
2:51 PM 80.1 °F 50.0 °F 35% 30.15 in 10.0 mi Variable 5.8 mph - N/A   Mostly Cloudy
3:51 PM 79.0 °F 50.0 °F 36% 30.12 in 10.0 mi East 9.2 mph 19.6 mph N/A   Mostly Cloudy
4:51 PM 80.1 °F 48.0 °F 32% 30.11 in 10.0 mi ENE 9.2 mph - N/A   Mostly Cloudy
5:51 PM 80.1 °F 46.9 °F 31% 30.09 in 10.0 mi East 12.7 mph - N/A   Mostly Cloudy
6:51 PM 77.0 °F 46.9 °F 34% 30.08 in 10.0 mi East 10.4 mph - N/A   Scattered Clouds
7:10 PM 77.0 °F 48.2 °F 36% 30.13 in 10.0 mi East 10.4 mph - N/A   Mostly Cloudy
7:51 PM 75.0 °F 48.9 °F 40% 30.10 in 10.0 mi East 6.9 mph - N/A   Mostly Cloudy
8:51 PM 70.0 °F 48.9 °F 47% 30.13 in 10.0 mi Calm Calm - N/A   Mostly Cloudy
9:51 PM 70.0 °F 51.1 °F 51% 30.14 in 10.0 mi NE 4.6 mph - N/A   Partly Cloudy
10:51 PM 68.0 °F 50.0 °F 52% 30.15 in 10.0 mi NE 3.5 mph - N/A   Clear
11:51 PM 66.0 °F 48.9 °F 54% 30.16 in 10.0 mi Calm Calm - N/A   Partly Cloudy